LX2JV Weather Reports


time (UTC)temp
C
wind
direction
speed
KPH
gust
KPH
rain 1hr
cm
rain 24hr
cm
rain mn
cm
humidity
%
barometer
mb
20190422181557 17 13 0.0 0.0 0.00 0.00 0.00 39 1000.0
20190422180559 17 40 0.0 0.0 0.00 0.00 0.00 38 1000.0
20190422180106 18 41 0.0 0.0 0.00 0.00 0.00 38 1000.1
20190422175105 18 42 0.0 0.0 0.00 0.00 0.00 36 1000.0
20190422174629 18 18 0.0 0.0 0.00 0.00 0.00 36 1000.2
20190422174115 18 84 1.6 0.0 0.00 0.00 0.00 35 1000.0
20190422173115 19 105 1.6 0.0 0.00 0.00 0.00 35 1000.1
20190422172603 20 42 1.6 0.0 0.00 0.00 0.00 34 1000.2
20190422172108 20 60 1.6 0.0 0.00 0.00 0.00 34 1000.1
20190422171611 20 9 1.6 0.0 0.00 0.00 0.00 34 1000.1
20190422171058 20 39 1.6 0.0 0.00 0.00 0.00 33 1000.3
20190422170606 20 335 1.6 0.0 0.00 0.00 0.00 33 1000.2
20190422170112 20 48 3.2 0.0 0.00 0.00 0.00 34 1000.2
20190422165616 20 89 1.6 0.0 0.00 0.00 0.00 35 1000.3
20190422165103 21 37 0.0 0.0 0.00 0.00 0.00 35 1000.3
20190422164611 21 50 1.6 0.0 0.00 0.00 0.00 37 1000.4
20190422163105 21 76 0.0 0.0 0.00 0.00 0.00 37 1000.3
20190422162608 21 39 1.6 0.0 0.00 0.00 0.00 36 1000.3
20190422161612 21 81 1.6 0.0 0.00 0.00 0.00 36 1000.4
20190422161059 21 59 0.0 0.0 0.00 0.00 0.00 38 1000.4
20190422160606 21 119 0.0 0.0 0.00 0.00 0.00 38 1000.6
20190422155612 21 135 3.2 0.0 0.00 0.00 0.00 35 1000.6
20190422155115 22 68 1.6 0.0 0.00 0.00 0.00 35 1000.6
20190422154602 22 109 0.0 0.0 0.00 0.00 0.00 36 1000.6
20190422154110 22 100 0.0 0.0 0.00 0.00 0.00 35 1000.6
20190422153613 22 115 0.0 0.0 0.00 0.00 0.00 35 1000.7
20190422153101 22 44 0.0 0.0 0.00 0.00 0.00 37 1000.8
20190422152607 22 122 1.6 0.0 0.00 0.00 0.00 36 1000.9
20190422151101 22 42 0.0 0.0 0.00 0.00 0.00 35 1000.9
20190422150608 22 13 1.6 0.0 0.00 0.00 0.00 35 1000.9
20190422150110 22 89 1.6 0.0 0.00 0.00 0.00 35 1001.0
20190422145558 22 79 1.6 0.0 0.00 0.00 0.00 36 1001.1
20190422145105 22 100 1.6 0.0 0.00 0.00 0.00 36 1001.3
20190422144608 22 114 1.6 0.0 0.00 0.00 0.00 34 1001.3
20190422144114 22 87 1.6 0.0 0.00 0.00 0.00 34 1001.5
20190422143601 22 94 1.6 0.0 0.00 0.00 0.00 35 1001.5
20190422143107 23 114 1.6 0.0 0.00 0.00 0.00 34 1001.6
20190422142610 23 3 1.6 0.0 0.00 0.00 0.00 33 1001.5
20190422142116 23 62 3.2 0.0 0.00 0.00 0.00 34 1001.6
20190422141101 23 92 1.6 0.0 0.00 0.00 0.00 34 1001.8
20190422140607 23 97 1.6 0.0 0.00 0.00 0.00 33 1001.8
20190422140111 23 119 1.6 0.0 0.00 0.00 0.00 32 1002.0
20190422135558 23 119 3.2 0.0 0.00 0.00 0.00 33 1002.0
20190422135105 23 18 3.2 0.0 0.00 0.00 0.00 34 1002.0
20190422134608 23 32 1.6 0.0 0.00 0.00 0.00 32 1002.1
20190422134116 23 77 1.6 0.0 0.00 0.00 0.00 32 1002.1
20190422133603 23 85 1.6 0.0 0.00 0.00 0.00 33 1002.2
20190422133110 22 75 1.6 0.0 0.00 0.00 0.00 34 1002.2
20190422131608 22 109 6.4 0.0 0.00 0.00 0.00 31 1002.4
20190422130609 22 53 6.4 0.0 0.00 0.00 0.00 31 1002.6
20190422130116 23 118 3.2 0.0 0.00 0.00 0.00 31 1002.6
20190422125116 23 117 1.6 0.0 0.00 0.00 0.00 34 1002.8
20190422124603 22 114 1.6 0.0 0.00 0.00 0.00 38 1002.9
20190422124107 22 102 3.2 0.0 0.00 0.00 0.00 33 1003.0
20190422123613 22 360 3.2 0.0 0.00 0.00 0.00 35 1003.0
20190422123101 22 120 3.2 0.0 0.00 0.00 0.00 35 1003.0
20190422122101 21 105 4.8 0.0 0.00 0.00 0.00 34 1003.3
20190422121100 22 18 4.8 0.0 0.00 0.00 0.00 34 1003.4
20190422120604 22 126 3.2 0.0 0.00 0.00 0.00 35 1003.4
20190422120110 22 343 4.8 0.0 0.00 0.00 0.00 35 1003.5
20190422115558 22 84 3.2 0.0 0.00 0.00 0.00 36 1003.5
20190422114602 22 90 1.6 0.0 0.00 0.00 0.00 36 1003.6
20190422114106 22 66 1.6 0.0 0.00 0.00 0.00 37 1003.7
20190422113612 21 28 3.2 0.0 0.00 0.00 0.00 36 1003.7
20190422113100 21 131 3.2 0.0 0.00 0.00 0.00 39 1003.7
20190422112603 21 114 3.2 0.0 0.00 0.00 0.00 36 1003.7
20190422112111 21 133 3.2 0.0 0.00 0.00 0.00 39 1003.8
20190422111115 20 125 6.4 0.0 0.00 0.00 0.00 37 1004.0
20190422110603 20 109 4.8 0.0 0.00 0.00 0.00 35 1004.1
20190422110105 21 40 1.6 0.0 0.00 0.00 0.00 38 1004.2
20190422105612 21 18 1.6 0.0 0.00 0.00 0.00 40 1004.3
20190422105058 20 39 1.6 0.0 0.00 0.00 0.00 38 1004.3
20190422104104 19 62 1.6 0.0 0.00 0.00 0.00 38 1004.4
20190422103607 19 82 1.6 0.0 0.00 0.00 0.00 38 1004.5
20190422103115 20 63 3.2 0.0 0.00 0.00 0.00 37 1004.6
20190422102601 20 119 1.6 0.0 0.00 0.00 0.00 39 1004.7
20190422102109 20 76 1.6 0.0 0.00 0.00 0.00 38 1004.8
20190422101105 18 127 1.6 0.0 0.00 0.00 0.00 42 1005.0
20190422095106 20 101 4.8 0.0 0.00 0.00 0.00 39 1005.3
20190422092613 19 111 9.7 9.7 0.00 0.00 0.00 41 1005.5
20190422092120 19 121 3.2 3.2 0.00 0.00 0.00 40 1005.6
20190422091106 19 80 0.0 3.2 0.00 0.00 0.00 40 1005.8
20190422090611 18 77 3.2 3.2 0.00 0.00 0.00 40 1005.8
20190422090117 18 71 0.0 1.6 0.00 0.00 0.00 39 1006.0
20190422085601 18 121 1.6 3.2 0.00 0.00 0.00 40 1006.0
20190422085104 18 52 3.2 3.2 0.00 0.00 0.00 40 1006.1
20190422084105 18 17 1.6 1.6 0.00 0.00 0.00 42 1006.1
20190422083610 18 70 1.6 1.6 0.00 0.00 0.00 41 1006.2
20190422083116 18 58 1.6 3.2 0.00 0.00 0.00 44 1006.3
20190422082617 17 71 3.2 3.2 0.00 0.00 0.00 43 1006.2
20190422082103 17 7 1.6 1.6 0.00 0.00 0.00 42 1006.4
20190422081608 17 67 0.0 0.0 0.00 0.00 0.00 41 1006.4
20190422081110 17 53 0.0 8.0 0.00 0.00 0.00 42 1006.4
20190422080616 17 29 8.0 8.0 0.00 0.00 0.00 41 1006.5
20190422080120 17 64 1.6 3.2 0.00 0.00 0.00 43 1006.6
20190422075605 17 59 3.2 3.2 0.00 0.00 0.00 41 1006.6
20190422075106 17 22 1.6 1.6 0.00 0.00 0.00 42 1006.5
20190422074612 17 103 0.0 1.6 0.00 0.00 0.00 42 1006.6
20190422074118 16 94 1.6 1.6 0.00 0.00 0.00 42 1006.7
20190422073619 16 23 1.6 1.6 0.00 0.00 0.00 43 1006.7
20190422073105 16 126 0.0 9.7 0.00 0.00 0.00 42 1006.8
20190422072610 16 358 9.7 9.7 0.00 0.00 0.00 43 1006.9
20190422072112 16 48 4.8 4.8 0.00 0.00 0.00 44 1007.0
20190422071617 16 42 0.0 0.0 0.00 0.00 0.00 44 1007.0
20190422071103 16 70 0.0 0.0 0.00 0.00 0.00 44 1007.0
20190422070608 15 67 0.0 4.8 0.00 0.00 0.00 44 1006.2
20190422070109 15 34 4.8 4.8 0.00 0.00 0.00 46 1006.2
20190422065107 15 60 3.2 3.2 0.00 0.00 0.00 46 1006.2
20190422064612 14 77 0.0 0.0 0.00 0.00 0.00 47 1006.2
20190422064117 13 124 0.0 0.0 0.00 0.00 0.00 48 1006.3
20190422063618 13 77 0.0 0.0 0.00 0.00 0.00 49 1006.2
20190422062826 13 79 0.0 0.0 0.00 0.00 0.00 51 1006.3
20190422062119 12 82 0.0 0.0 0.00 0.00 0.00 50 1006.3
20190422061604 12 81 0.0 0.0 0.00 0.00 0.00 50 1006.3
20190422060620 12 87 0.0 0.0 0.00 0.00 0.00 51 1006.4
20190422055619 12 12 0.0 1.6 0.00 0.00 0.00 52 1006.4
20190422055105 11 12 1.6 1.6 0.00 0.00 0.00 52 1006.5
20190422054610 11 7 1.6 3.2 0.00 0.00 0.00 52 1006.5
20190422054111 11 7 3.2 3.2 0.00 0.00 0.00 52 1006.6
20190422053616 11 57 0.0 1.6 0.00 0.00 0.00 52 1006.6
20190422053121 11 57 1.6 1.6 0.00 0.00 0.00 53 1006.7
20190422052602 10 57 0.0 0.0 0.00 0.00 0.00 53 1006.7
20190422052106 10 36 0.0 0.0 0.00 0.00 0.00 54 1006.6
20190422051612 10 36 0.0 0.0 0.00 0.00 0.00 54 1006.7
20190422051117 10 36 0.0 0.0 0.00 0.00 0.00 54 1006.7
20190422050618 10 36 0.0 1.6 0.00 0.00 0.00 54 1006.8
20190422050103 10 36 1.6 1.6 0.00 0.00 0.00 54 1006.8
20190422045608 10 36 0.0 0.0 0.00 0.00 0.00 53 1006.7
20190422044608 10 36 0.0 1.6 0.00 0.00 0.00 52 1006.7
20190422044109 10 36 1.6 3.2 0.00 0.00 0.00 52 1006.8
20190422043614 10 36 3.2 3.2 0.00 0.00 0.00 52 1006.8
20190422043119 10 36 0.0 0.0 0.00 0.00 0.00 51 1006.8
20190422042620 10 36 0.0 0.0 0.00 0.00 0.00 52 1006.8
20190422042105 10 36 0.0 0.0 0.00 0.00 0.00 52 1006.8
20190422041610 10 36 0.0 0.0 0.00 0.00 0.00 52 1006.9
20190422041111 10 36 0.0 0.0 0.00 0.00 0.00 52 1007.0
20190422040616 10 36 0.0 0.0 0.00 0.00 0.00 51 1007.0
20190422040121 10 36 0.0 0.0 0.00 0.00 0.00 51 1007.1
20190422035606 10 36 0.0 0.0 0.00 0.00 0.00 50 1007.1
20190422035107 10 36 0.0 0.0 0.00 0.00 0.00 50 1007.1
20190422034612 11 36 0.0 0.0 0.00 0.00 0.00 50 1007.2
20190422034117 11 36 0.0 0.0 0.00 0.00 0.00 49 1007.2
20190422033618 11 36 0.0 0.0 0.00 0.00 0.00 49 1007.2
20190422033103 11 35 0.0 0.0 0.00 0.00 0.00 48 1007.2
20190422032608 11 36 0.0 0.0 0.00 0.00 0.00 48 1007.2
20190422032113 11 36 0.0 0.0 0.00 0.00 0.00 48 1007.3
20190422031613 11 36 0.0 0.0 0.00 0.00 0.00 48 1007.4
20190422031118 11 35 0.0 0.0 0.00 0.00 0.00 48 1007.4
20190422030604 11 36 0.0 0.0 0.00 0.00 0.00 49 1007.4
20190422030106 11 36 0.0 0.0 0.00 0.00 0.00 49 1007.5
20190422025611 11 36 0.0 0.0 0.00 0.00 0.00 49 1007.5
20190422025115 11 36 0.0 0.0 0.00 0.00 0.00 50 1007.5
20190422024616 11 36 0.0 0.0 0.00 0.00 0.00 50 1007.7
20190422024102 11 36 0.0 0.0 0.00 0.00 0.00 50 1007.7
20190422023102 10 36 0.0 0.0 0.00 0.00 0.00 50 1007.8
20190422022609 10 36 0.0 0.0 0.00 0.00 0.00 51 1007.8
20190422022109 10 36 0.0 0.0 0.00 0.00 0.00 51 1007.9
20190422021617 10 36 0.0 0.0 0.00 0.00 0.00 51 1007.9
20190422021120 11 36 0.0 0.0 0.00 0.00 0.00 51 1007.9
20190422020607 11 36 0.0 0.0 0.00 0.00 0.00 51 1008.1
20190422015600 11 36 0.0 0.0 0.00 0.00 0.00 51 1008.1
20190422015104 11 36 0.0 0.0 0.00 0.00 0.00 51 1008.2
20190422014551 11 36 0.0 0.0 0.00 0.00 0.00 50 1008.2
20190422014057 11 36 0.0 0.0 0.00 0.00 0.00 50 1008.3
20190422013558 11 36 0.0 0.0 0.00 0.00 0.00 50 1008.4
20190422013103 11 36 0.0 0.0 0.00 0.00 0.00 49 1008.5
20190422012549 11 36 0.0 0.0 0.00 0.00 0.00 49 1008.4
20190422012050 11 36 0.0 0.0 0.00 0.00 0.00 50 1008.6
20190422011046 11 36 0.0 0.0 0.00 0.00 0.00 50 1008.8
20190422010552 11 36 0.0 0.0 0.00 0.00 0.00 50 1008.7
20190422010057 11 36 0.0 0.0 0.00 0.00 0.00 49 1008.8
20190422005635 11 36 0.0 0.0 0.00 0.00 0.00 49 1008.9
20190422005105 11 36 0.0 0.0 0.00 0.00 0.00 49 1008.9
20190422004549 11 36 0.0 0.0 0.00 0.00 0.00 50 1008.9
20190422004056 11 36 0.0 0.0 0.00 0.00 0.00 50 1009.0
20190422003557 11 36 0.0 0.0 0.00 0.00 0.00 50 1009.0
20190422003103 11 36 0.0 0.0 0.00 0.00 0.00 50 1009.1
20190422002548 11 36 0.0 0.0 0.00 0.00 0.00 51 1009.1
20190422002050 11 36 0.0 0.0 0.00 0.00 0.00 51 1009.2
20190422001554 11 36 0.0 0.0 0.00 0.00 0.00 51 1009.3
20190422001100 10 36 0.0 0.0 0.00 0.00 0.00 52 1009.4
20190422000602 10 36 0.0 0.0 0.00 0.00 0.00 53 1009.4
20190422000048 10 36 0.0 0.0 0.00 0.00 0.00 54 1009.5
20190421235601 10 36 0.0 0.0 0.00 0.00 0.00 53 1009.5
20190421235058 10 36 0.0 0.0 0.00 0.00 0.00 54 1009.6
20190421234559 10 35 0.0 0.0 0.00 0.00 0.00 54 1009.6
20190421234104 9 36 0.0 0.0 0.00 0.00 0.00 55 1009.7
20190421233549 9 36 0.0 0.0 0.00 0.00 0.00 55 1009.7
20190421233050 9 36 0.0 0.0 0.00 0.00 0.00 55 1009.7
20190421232555 9 36 0.0 0.0 0.00 0.00 0.00 55 1009.7
20190421232100 9 36 0.0 0.0 0.00 0.00 0.00 55 1009.8
20190421231605 9 36 0.0 0.0 0.00 0.00 0.00 55 1009.8
20190421231106 9 36 0.0 0.0 0.00 0.00 0.00 55 1009.9
20190421230550 9 36 0.0 0.0 0.00 0.00 0.00 55 1009.9
20190421230056 9 36 0.0 0.0 0.00 0.00 0.00 55 1009.9
20190421225557 9 36 0.0 0.0 0.00 0.00 0.00 54 1009.9
20190421225102 9 36 0.0 0.0 0.00 0.00 0.00 54 1010.1
20190421224548 9 37 0.0 0.0 0.00 0.00 0.00 54 1010.1
20190421224054 10 36 0.0 0.0 0.00 0.00 0.00 54 1010.1
20190421223555 10 36 0.0 0.0 0.00 0.00 0.00 53 1010.2
20190421223101 10 36 0.0 0.0 0.00 0.00 0.00 53 1010.1
20190421222606 10 36 0.0 0.0 0.00 0.00 0.00 52 1010.2
20190421222048 10 36 0.0 0.0 0.00 0.00 0.00 52 1010.2
20190421221553 10 36 0.0 0.0 0.00 0.00 0.00 52 1010.2
20190421221059 10 36 0.0 0.0 0.00 0.00 0.00 52 1010.3
20190421220600 10 36 0.0 0.0 0.00 0.00 0.00 51 1010.4
20190421215557 11 36 0.0 0.0 0.00 0.00 0.00 51 1010.5
20190421215103 11 36 0.0 0.0 0.00 0.00 0.00 51 1010.6
20190421214548 11 36 0.0 0.0 0.00 0.00 0.00 51 1010.6
20190421214053 11 36 0.0 0.0 0.00 0.00 0.00 51 1010.5
20190421213047 11 36 0.0 0.0 0.00 0.00 0.00 51 1010.6
20190421212552 11 36 0.0 0.0 0.00 0.00 0.00 52 1010.6
20190421212058 10 36 0.0 0.0 0.00 0.00 0.00 53 1010.7
20190421211559 10 36 0.0 0.0 0.00 0.00 0.00 53 1010.7
20190421211105 10 36 0.0 0.0 0.00 0.00 0.00 53 1010.7
20190421210550 10 36 0.0 0.0 0.00 0.00 0.00 53 1010.8
20190421210056 10 36 0.0 0.0 0.00 0.00 0.00 53 1010.8
20190421205557 10 36 0.0 0.0 0.00 0.00 0.00 53 1010.9
20190421205103 10 36 0.0 0.0 0.00 0.00 0.00 53 1010.8
20190421204548 10 36 0.0 0.0 0.00 0.00 0.00 53 1010.9
20190421204050 10 36 0.0 0.0 0.00 0.00 0.00 53 1010.9
20190421203555 11 36 0.0 0.0 0.00 0.00 0.00 53 1010.9
20190421203101 11 36 0.0 0.0 0.00 0.00 0.00 53 1010.9
20190421202602 11 36 0.0 0.0 0.00 0.00 0.00 53 1011.0
20190421202048 11 36 0.0 0.0 0.00 0.00 0.00 53 1011.0
20190421201553 11 36 0.0 0.0 0.00 0.00 0.00 52 1011.0
20190421201059 11 36 0.0 0.0 0.00 0.00 0.00 53 1011.1
20190421200556 11 36 0.0 0.0 0.00 0.00 0.00 53 1011.1
20190421200059 11 36 0.0 0.0 0.00 0.00 0.00 51 1011.1
20190421195604 12 36 0.0 0.0 0.00 0.00 0.00 50 1011.2
20190421195106 12 36 0.0 0.0 0.00 0.00 0.00 50 1011.2
20190421194551 12 36 0.0 0.0 0.00 0.00 0.00 49 1011.1
20190421194057 12 36 0.0 0.0 0.00 0.00 0.00 48 1011.1
20190421193602 12 36 0.0 0.0 0.00 0.00 0.00 48 1011.2
20190421193104 12 37 0.0 0.0 0.00 0.00 0.00 48 1011.2
20190421192549 12 36 0.0 0.0 0.00 0.00 0.00 48 1011.2
20190421192054 12 36 0.0 0.0 0.00 0.00 0.00 47 1011.3
20190421191555 13 36 0.0 0.0 0.00 0.00 0.00 47 1011.2
20190421191059 13 36 0.0 0.0 0.00 0.00 0.00 46 1011.2
20190421190605 13 36 0.0 0.0 0.00 0.00 0.00 46 1011.2
20190421190050 13 36 0.0 0.0 0.00 0.00 0.00 45 1011.2
20190421185106 14 36 0.0 0.0 0.00 0.00 0.00 45 1011.2
20190421184551 15 36 0.0 0.0 0.00 0.00 0.00 44 1011.2
20190421184057 15 35 0.0 0.0 0.00 0.00 0.00 44 1011.2
20190421183558 15 36 0.0 0.0 0.00 0.00 0.00 43 1011.2
20190421183104 15 36 0.0 0.0 0.00 0.00 0.00 43 1011.2
20190421182549 16 36 0.0 0.0 0.00 0.00 0.00 42 1011.1
20190421182054 16 36 0.0 0.0 0.00 0.00 0.00 42 1011.1